Time,TemperatureF,DewpointF,PressureIn,WindDirection,WindDirectionDegrees,WindSpeedMPH,WindSpeedGustMPH,Humidity,HourlyPrecipIn,Conditions,Clouds,dailyrainin,SoftwareType,DateUTC
2013-06-12 00:00:00,59.5,58.1,29.89,North,1,0.0,0.0,95,0.00,,---,0.00,VWS V14.01,2013-06-12 04:00:00,
2013-06-12 00:01:00,58.0,57.2,29.91,North,1,0.0,0.0,97,0.00,,---,0.00,VWS V14.01,2013-06-12 04:01:00,
2013-06-12 00:02:00,57.9,57.1,29.90,North,1,1.0,1.0,97,0.00,,---,0.00,VWS V14.01,2013-06-12 04:02:00,
2013-06-12 00:07:00,57.7,56.9,29.90,North,1,0.0,2.0,97,0.00,,---,0.00,VWS V14.01,2013-06-12 04:07:00,
2013-06-12 00:10:00,58.9,57.5,29.89,North,1,0.0,5.0,95,0.00,,---,0.00,VWS V14.01,2013-06-12 04:10:00,
2013-06-12 00:12:00,57.9,57.1,29.90,North,1,0.0,0.0,97,0.00,,---,0.00,VWS V14.01,2013-06-12 04:12:00,
2013-06-12 00:17:00,57.7,56.9,29.90,North,1,2.0,3.0,97,0.00,,---,0.00,VWS V14.01,2013-06-12 04:17:00,
2013-06-12 00:20:00,58.3,57.2,29.90,North,1,0.0,2.0,96,0.00,,---,0.00,VWS V14.01,2013-06-12 04:20:00,
2013-06-12 00:22:00,57.4,56.6,29.90,North,1,1.0,2.0,97,0.00,,---,0.00,VWS V14.01,2013-06-12 04:22:00,
2013-06-12 00:27:00,57.3,56.5,29.90,North,1,1.0,2.0,97,0.00,,---,0.00,VWS V14.01,2013-06-12 04:27:00,
2013-06-12 00:30:00,58.3,57.2,29.89,North,1,1.0,3.0,96,0.00,,---,0.00,VWS V14.01,2013-06-12 04:30:00,
2013-06-12 00:32:00,57.3,56.5,29.90,North,1,0.0,1.0,97,0.00,,---,0.00,VWS V14.01,2013-06-12 04:32:00,
2013-06-12 00:37:00,57.0,56.2,29.90,North,1,0.0,1.0,97,0.00,,---,0.00,VWS V14.01,2013-06-12 04:37:00,
2013-06-12 00:40:00,58.2,57.1,29.90,North,1,0.0,3.0,96,0.00,,---,0.00,VWS V14.01,2013-06-12 04:40:00,
2013-06-12 00:42:00,56.7,55.9,29.90,North,1,2.0,2.0,97,0.00,,---,0.00,VWS V14.01,2013-06-12 04:42:00,
2013-06-12 00:47:00,56.5,55.7,29.90,North,1,0.0,2.0,97,0.00,,---,0.00,VWS V14.01,2013-06-12 04:47:00,
2013-06-12 00:50:00,58.0,57.2,29.90,North,1,0.0,3.0,97,0.00,,---,0.00,VWS V14.01,2013-06-12 04:50:00,
2013-06-12 00:52:00,56.4,55.6,29.90,North,1,0.0,0.0,97,0.00,,---,0.00,VWS V14.01,2013-06-12 04:52:00,
2013-06-12 00:57:00,56.2,55.4,29.90,North,1,0.0,0.0,97,0.00,,---,0.00,VWS V14.01,2013-06-12 04:57:00,
2013-06-12 01:00:00,58.0,57.2,29.91,North,1,0.0,0.0,97,0.00,,---,0.00,VWS V14.01,2013-06-12 05:00:00,
2013-06-12 01:02:00,56.2,55.4,29.90,North,1,0.0,0.0,97,0.00,,---,0.00,VWS V14.01,2013-06-12 05:02:00,
2013-06-12 01:07:00,56.4,55.6,29.90,North,1,0.0,1.0,97,0.00,,---,0.00,VWS V14.01,2013-06-12 05:07:00,
2013-06-12 01:10:00,57.9,57.1,29.90,North,1,0.0,2.0,97,0.00,,---,0.00,VWS V14.01,2013-06-12 05:10:00,
2013-06-12 01:12:00,56.5,55.9,29.91,North,1,0.0,1.0,98,0.00,,---,0.00,VWS V14.01,2013-06-12 05:12:00,
2013-06-12 01:17:00,56.5,55.9,29.91,North,1,1.0,1.0,98,0.00,,---,0.00,VWS V14.01,2013-06-12 05:17:00,
2013-06-12 01:20:00,57.6,56.8,29.90,North,1,0.0,3.0,97,0.00,,---,0.00,VWS V14.01,2013-06-12 05:20:00,
2013-06-12 01:22:00,56.4,55.8,29.91,North,1,0.0,0.0,98,0.00,,---,0.00,VWS V14.01,2013-06-12 05:22:00,
2013-06-12 01:27:00,56.5,55.7,29.90,North,1,0.0,0.0,97,0.00,,---,0.00,VWS V14.01,2013-06-12 05:27:00,
2013-06-12 01:30:00,57.3,56.7,29.90,North,1,1.0,3.0,98,0.00,,---,0.00,VWS V14.01,2013-06-12 05:30:00,
2013-06-12 01:32:00,56.5,55.9,29.91,North,1,0.0,0.0,98,0.00,,---,0.00,VWS V14.01,2013-06-12 05:32:00,
2013-06-12 01:37:00,56.5,55.9,29.90,North,1,2.0,2.0,98,0.00,,---,0.00,VWS V14.01,2013-06-12 05:37:00,
2013-06-12 01:40:00,56.8,56.0,29.90,North,1,1.0,2.0,97,0.00,,---,0.00,VWS V14.01,2013-06-12 05:40:00,
2013-06-12 01:42:00,56.4,55.8,29.91,North,1,1.0,2.0,98,0.00,,---,0.00,VWS V14.01,2013-06-12 05:42:00,
2013-06-12 01:47:00,56.4,55.8,29.90,North,1,1.0,2.0,98,0.00,,---,0.00,VWS V14.01,2013-06-12 05:47:00,
2013-06-12 01:50:00,56.4,55.6,29.90,North,1,0.0,2.0,97,0.00,,---,0.00,VWS V14.01,2013-06-12 05:50:00,
2013-06-12 01:52:00,56.2,55.7,29.90,North,1,0.0,1.0,98,0.00,,---,0.00,VWS V14.01,2013-06-12 05:52:00,
2013-06-12 01:57:00,56.2,55.7,29.91,North,1,0.0,2.0,98,0.00,,---,0.00,VWS V14.01,2013-06-12 05:57:00,
2013-06-12 02:00:00,56.2,55.4,29.90,North,1,0.0,0.0,97,0.00,,---,0.00,VWS V14.01,2013-06-12 06:00:00,
2013-06-12 02:02:00,55.8,55.2,29.90,North,1,0.0,0.0,98,0.00,,---,0.00,VWS V14.01,2013-06-12 06:02:00,
2013-06-12 02:07:00,55.6,55.0,29.90,North,1,0.0,2.0,98,0.00,,---,0.00,VWS V14.01,2013-06-12 06:07:00,
2013-06-12 02:10:00,56.5,55.9,29.91,North,1,0.0,1.0,98,0.00,,---,0.00,VWS V14.01,2013-06-12 06:10:00,
2013-06-12 02:12:00,55.6,55.0,29.90,North,1,0.0,0.0,98,0.00,,---,0.00,VWS V14.01,2013-06-12 06:12:00,
2013-06-12 02:17:00,55.5,55.0,29.90,North,1,0.0,0.0,98,0.00,,---,0.00,VWS V14.01,2013-06-12 06:17:00,
2013-06-12 02:20:00,56.4,55.8,29.91,North,1,0.0,1.0,98,0.00,,---,0.00,VWS V14.01,2013-06-12 06:20:00,
2013-06-12 02:22:00,55.3,54.8,29.90,North,1,0.0,0.0,98,0.00,,---,0.00,VWS V14.01,2013-06-12 06:22:00,
2013-06-12 02:27:00,55.3,54.8,29.90,North,1,0.0,0.0,98,0.00,,---,0.00,VWS V14.01,2013-06-12 06:27:00,
2013-06-12 02:30:00,56.5,55.9,29.91,North,1,0.0,0.0,98,0.00,,---,0.00,VWS V14.01,2013-06-12 06:30:00,
2013-06-12 02:32:00,55.2,54.7,29.90,North,1,0.0,0.0,98,0.00,,---,0.00,VWS V14.01,2013-06-12 06:32:00,
2013-06-12 02:37:00,55.3,54.8,29.90,North,1,0.0,0.0,98,0.00,,---,0.00,VWS V14.01,2013-06-12 06:37:00,
2013-06-12 02:40:00,56.5,55.9,29.91,North,1,0.0,3.0,98,0.00,,---,0.00,VWS V14.01,2013-06-12 06:40:00,
2013-06-12 02:42:00,55.5,54.7,29.89,North,1,0.0,0.0,97,0.00,,---,0.00,VWS V14.01,2013-06-12 06:42:00,
2013-06-12 02:47:00,55.3,54.5,29.89,North,1,0.0,2.0,97,0.00,,---,0.00,VWS V14.01,2013-06-12 06:47:00,
2013-06-12 02:50:00,56.4,56.1,29.90,North,1,0.0,2.0,99,0.00,,---,0.00,VWS V14.01,2013-06-12 06:50:00,
2013-06-12 02:52:00,55.3,54.5,29.89,North,1,0.0,2.0,97,0.00,,---,0.00,VWS V14.01,2013-06-12 06:52:00,
2013-06-12 02:57:00,55.2,54.4,29.90,North,1,0.0,2.0,97,0.00,,---,0.00,VWS V14.01,2013-06-12 06:57:00,
2013-06-12 03:00:00,56.1,55.8,29.91,North,1,0.0,2.0,99,0.00,,---,0.00,VWS V14.01,2013-06-12 07:00:00,
2013-06-12 03:02:00,55.3,54.8,29.89,North,1,0.0,0.0,98,0.00,,---,0.00,VWS V14.01,2013-06-12 07:02:00,
2013-06-12 03:07:00,55.3,54.8,29.90,North,1,0.0,0.0,98,0.00,,---,0.00,VWS V14.01,2013-06-12 07:07:00,
2013-06-12 03:10:00,55.6,55.0,29.90,North,1,0.0,2.0,98,0.00,,---,0.00,VWS V14.01,2013-06-12 07:10:00,
2013-06-12 03:12:00,55.2,54.4,29.90,North,1,0.0,0.0,97,0.00,,---,0.00,VWS V14.01,2013-06-12 07:12:00,
2013-06-12 03:17:00,55.2,54.4,29.90,North,1,0.0,0.0,97,0.00,,---,0.00,VWS V14.01,2013-06-12 07:17:00,
2013-06-12 03:20:00,55.3,54.8,29.90,North,1,0.0,0.0,98,0.00,,---,0.00,VWS V14.01,2013-06-12 07:20:00,
2013-06-12 03:22:00,55.5,55.0,29.90,North,1,0.0,2.0,98,0.00,,---,0.00,VWS V14.01,2013-06-12 07:22:00,
2013-06-12 03:27:00,55.3,54.5,29.90,North,1,0.0,3.0,97,0.00,,---,0.00,VWS V14.01,2013-06-12 07:27:00,
2013-06-12 03:30:00,55.2,54.7,29.90,North,1,0.0,0.0,98,0.00,,---,0.00,VWS V14.01,2013-06-12 07:30:00,
2013-06-12 03:32:00,55.3,54.5,29.89,North,1,0.0,1.0,97,0.00,,---,0.00,VWS V14.01,2013-06-12 07:32:00,
2013-06-12 03:37:00,55.3,54.8,29.89,North,1,0.0,1.0,98,0.00,,---,0.00,VWS V14.01,2013-06-12 07:37:00,
2013-06-12 03:40:00,55.3,54.8,29.90,North,1,0.0,0.0,98,0.00,,---,0.00,VWS V14.01,2013-06-12 07:40:00,
2013-06-12 03:42:00,55.3,54.5,29.89,North,1,0.0,0.0,97,0.00,,---,0.00,VWS V14.01,2013-06-12 07:42:00,
2013-06-12 03:48:00,55.6,55.0,29.89,North,1,0.0,0.0,98,0.00,,---,0.00,VWS V14.01,2013-06-12 07:48:00,
2013-06-12 03:50:00,55.3,54.5,29.89,North,1,1.0,2.0,97,0.00,,---,0.00,VWS V14.01,2013-06-12 07:50:00,
2013-06-12 03:53:00,55.8,55.2,29.89,North,1,0.0,0.0,98,0.00,,---,0.00,VWS V14.01,2013-06-12 07:53:00,
2013-06-12 03:58:00,55.9,55.3,29.89,North,1,0.0,2.0,98,0.00,,---,0.00,VWS V14.01,2013-06-12 07:58:00,
2013-06-12 04:00:00,55.2,54.4,29.89,North,1,0.0,2.0,97,0.00,,---,0.00,VWS V14.01,2013-06-12 08:00:00,
2013-06-12 04:03:00,56.1,55.5,29.90,North,1,0.0,2.0,98,0.00,,---,0.00,VWS V14.01,2013-06-12 08:03:00,
2013-06-12 04:08:00,56.1,55.5,29.90,North,1,0.0,2.0,98,0.00,,---,0.00,VWS V14.01,2013-06-12 08:08:00,
2013-06-12 04:10:00,55.2,54.4,29.90,North,1,0.0,0.0,97,0.00,,---,0.00,VWS V14.01,2013-06-12 08:10:00,
2013-06-12 04:13:00,56.2,55.7,29.89,North,1,0.0,0.0,98,0.00,,---,0.00,VWS V14.01,2013-06-12 08:13:00,
2013-06-12 04:18:00,56.2,55.7,29.90,North,1,0.0,0.0,98,0.00,,---,0.00,VWS V14.01,2013-06-12 08:18:00,
2013-06-12 04:20:00,55.3,54.5,29.90,North,1,0.0,0.0,97,0.00,,---,0.00,VWS V14.01,2013-06-12 08:20:00,
2013-06-12 04:23:00,56.2,55.7,29.90,North,1,0.0,0.0,98,0.00,,---,0.00,VWS V14.01,2013-06-12 08:23:00,
2013-06-12 04:28:00,56.4,55.8,29.90,North,1,0.0,2.0,98,0.00,,---,0.00,VWS V14.01,2013-06-12 08:28:00,
2013-06-12 04:30:00,55.3,54.5,29.90,North,1,1.0,3.0,97,0.00,,---,0.00,VWS V14.01,2013-06-12 08:30:00,
2013-06-12 04:33:00,56.4,55.8,29.90,North,1,2.0,3.0,98,0.00,,---,0.00,VWS V14.01,2013-06-12 08:33:00,
2013-06-12 04:38:00,56.2,55.7,29.90,North,1,2.0,3.0,98,0.00,,---,0.00,VWS V14.01,2013-06-12 08:38:00,
2013-06-12 04:40:00,55.3,54.5,29.89,North,1,0.0,1.0,97,0.00,,---,0.00,VWS V14.01,2013-06-12 08:40:00,
2013-06-12 04:43:00,56.2,55.7,29.90,North,1,0.0,3.0,98,0.00,,---,0.00,VWS V14.01,2013-06-12 08:43:00,
2013-06-12 04:48:00,56.1,55.5,29.90,North,1,1.0,3.0,98,0.00,,---,0.00,VWS V14.01,2013-06-12 08:48:00,
2013-06-12 04:50:00,55.6,55.0,29.89,North,1,0.0,0.0,98,0.00,,---,0.00,VWS V14.01,2013-06-12 08:50:00,
2013-06-12 04:53:00,55.9,55.3,29.90,North,1,0.0,3.0,98,0.00,,---,0.00,VWS V14.01,2013-06-12 08:53:00,
2013-06-12 04:58:00,55.8,55.2,29.90,North,1,0.0,3.0,98,0.00,,---,0.00,VWS V14.01,2013-06-12 08:58:00,
2013-06-12 05:00:00,56.1,55.5,29.90,North,1,0.0,2.0,98,0.00,,---,0.00,VWS V14.01,2013-06-12 09:00:00,
2013-06-12 05:03:00,55.8,55.2,29.91,North,1,0.0,3.0,98,0.00,,---,0.00,VWS V14.01,2013-06-12 09:03:00,
2013-06-12 05:08:00,55.8,55.2,29.91,North,1,0.0,3.0,98,0.00,,---,0.00,VWS V14.01,2013-06-12 09:08:00,
2013-06-12 05:10:00,56.2,55.7,29.90,North,1,0.0,2.0,98,0.00,,---,0.00,VWS V14.01,2013-06-12 09:10:00,
2013-06-12 05:13:00,55.8,55.2,29.91,North,1,0.0,2.0,98,0.00,,---,0.00,VWS V14.01,2013-06-12 09:13:00,
2013-06-12 05:18:00,55.6,55.0,29.91,North,1,1.0,3.0,98,0.00,,---,0.00,VWS V14.01,2013-06-12 09:18:00,
2013-06-12 05:20:00,56.2,55.7,29.90,North,1,0.0,0.0,98,0.00,,---,0.00,VWS V14.01,2013-06-12 09:20:00,
2013-06-12 05:23:00,55.6,55.0,29.91,North,1,2.0,3.0,98,0.00,,---,0.00,VWS V14.01,2013-06-12 09:23:00,
2013-06-12 05:28:00,55.5,55.0,29.91,North,1,0.0,3.0,98,0.00,,---,0.00,VWS V14.01,2013-06-12 09:28:00,
2013-06-12 05:30:00,56.4,55.8,29.90,North,1,2.0,3.0,98,0.00,,---,0.00,VWS V14.01,2013-06-12 09:30:00,
2013-06-12 05:33:00,55.5,55.0,29.91,North,1,0.0,0.0,98,0.00,,---,0.00,VWS V14.01,2013-06-12 09:33:00,
2013-06-12 05:38:00,55.5,55.0,29.91,North,1,2.0,2.0,98,0.00,,---,0.00,VWS V14.01,2013-06-12 09:38:00,
2013-06-12 05:40:00,56.2,55.7,29.90,North,1,1.0,3.0,98,0.00,,---,0.00,VWS V14.01,2013-06-12 09:40:00,
2013-06-12 05:43:00,55.5,55.0,29.91,North,1,1.0,3.0,98,0.00,,---,0.00,VWS V14.01,2013-06-12 09:43:00,
2013-06-12 05:48:00,55.3,54.8,29.92,North,1,0.0,3.0,98,0.00,,---,0.00,VWS V14.01,2013-06-12 09:48:00,
2013-06-12 05:50:00,55.9,55.3,29.90,North,1,1.0,3.0,98,0.00,,---,0.00,VWS V14.01,2013-06-12 09:50:00,
2013-06-12 05:53:00,55.5,55.0,29.92,North,1,0.0,0.0,98,0.00,,---,0.00,VWS V14.01,2013-06-12 09:53:00,
2013-06-12 05:58:00,55.5,55.0,29.92,North,1,0.0,0.0,98,0.00,,---,0.00,VWS V14.01,2013-06-12 09:58:00,
2013-06-12 06:00:00,55.8,55.2,29.91,North,1,1.0,3.0,98,0.00,,---,0.00,VWS V14.01,2013-06-12 10:00:00,
2013-06-12 06:03:00,55.5,55.0,29.92,North,1,0.0,2.0,98,0.00,,---,0.00,VWS V14.01,2013-06-12 10:03:00,
2013-06-12 06:08:00,55.6,55.0,29.92,North,1,1.0,2.0,98,0.00,,---,0.00,VWS V14.01,2013-06-12 10:08:00,
2013-06-12 06:10:00,55.8,55.2,29.91,North,1,1.0,3.0,98,0.00,,---,0.00,VWS V14.01,2013-06-12 10:10:00,
2013-06-12 06:13:00,55.8,55.2,29.92,North,1,1.0,3.0,98,0.00,,---,0.00,VWS V14.01,2013-06-12 10:13:00,
2013-06-12 06:18:00,55.8,55.2,29.92,North,1,1.0,4.0,98,0.00,,---,0.00,VWS V14.01,2013-06-12 10:18:00,
2013-06-12 06:20:00,55.6,55.0,29.91,North,1,0.0,3.0,98,0.00,,---,0.00,VWS V14.01,2013-06-12 10:20:00,
2013-06-12 06:23:00,55.6,55.0,29.92,North,1,3.0,5.0,98,0.00,,---,0.00,VWS V14.01,2013-06-12 10:23:00,
2013-06-12 06:28:00,55.6,55.0,29.92,North,1,2.0,5.0,98,0.00,,---,0.00,VWS V14.01,2013-06-12 10:28:00,
2013-06-12 06:30:00,55.5,55.0,29.92,North,1,0.0,3.0,98,0.00,,---,0.00,VWS V14.01,2013-06-12 10:30:00,
2013-06-12 06:33:00,55.5,55.0,29.92,North,1,0.0,2.0,98,0.00,,---,0.00,VWS V14.01,2013-06-12 10:33:00,
2013-06-12 06:38:00,55.5,55.0,29.92,North,1,1.0,2.0,98,0.00,,---,0.00,VWS V14.01,2013-06-12 10:38:00,
2013-06-12 06:40:00,55.5,55.0,29.91,North,1,1.0,2.0,98,0.00,,---,0.00,VWS V14.01,2013-06-12 10:40:00,
2013-06-12 06:43:00,55.5,55.0,29.92,North,1,1.0,3.0,98,0.00,,---,0.00,VWS V14.01,2013-06-12 10:43:00,
2013-06-12 06:48:00,55.3,54.8,29.92,North,1,0.0,3.0,98,0.00,,---,0.00,VWS V14.01,2013-06-12 10:48:00,
2013-06-12 06:50:00,55.3,54.8,29.92,North,1,0.0,3.0,98,0.00,,---,0.00,VWS V14.01,2013-06-12 10:50:00,
2013-06-12 06:53:00,55.2,54.7,29.92,North,1,0.0,3.0,98,0.00,,---,0.00,VWS V14.01,2013-06-12 10:53:00,
2013-06-12 06:58:00,55.2,54.7,29.93,North,1,0.0,3.0,98,0.00,,---,0.00,VWS V14.01,2013-06-12 10:58:00,
2013-06-12 07:00:00,55.5,55.0,29.92,North,1,0.0,0.0,98,0.00,,---,0.00,VWS V14.01,2013-06-12 11:00:00,
2013-06-12 07:03:00,55.2,54.7,29.93,North,1,1.0,2.0,98,0.00,,---,0.00,VWS V14.01,2013-06-12 11:03:00,
2013-06-12 07:08:00,55.3,54.8,29.93,North,1,1.0,3.0,98,0.00,,---,0.00,VWS V14.01,2013-06-12 11:08:00,
2013-06-12 07:10:00,55.6,55.0,29.92,North,1,1.0,3.0,98,0.00,,---,0.00,VWS V14.01,2013-06-12 11:10:00,
2013-06-12 07:14:00,55.2,54.7,29.93,North,1,0.0,3.0,98,0.00,,---,0.00,VWS V14.01,2013-06-12 11:14:00,
2013-06-12 07:19:00,55.2,54.7,29.93,North,1,1.0,3.0,98,0.00,,---,0.00,VWS V14.01,2013-06-12 11:19:00,
2013-06-12 07:20:00,55.8,55.2,29.93,North,1,4.0,4.0,98,0.00,,---,0.00,VWS V14.01,2013-06-12 11:20:00,
2013-06-12 07:24:00,55.2,54.7,29.93,North,1,1.0,2.0,98,0.00,,---,0.00,VWS V14.01,2013-06-12 11:24:00,
2013-06-12 07:29:00,55.4,54.8,29.93,North,1,3.0,4.0,98,0.00,,---,0.00,VWS V14.01,2013-06-12 11:29:00,
2013-06-12 07:30:00,55.5,55.0,29.92,North,1,2.0,5.0,98,0.00,,---,0.00,VWS V14.01,2013-06-12 11:30:00,
2013-06-12 07:34:00,55.5,55.0,29.92,North,1,2.0,5.0,98,0.00,,---,0.00,VWS V14.01,2013-06-12 11:34:00,
2013-06-12 07:39:00,55.5,55.0,29.92,North,1,1.0,5.0,98,0.00,,---,0.00,VWS V14.01,2013-06-12 11:39:00,
2013-06-12 07:40:00,55.5,55.0,29.92,North,1,2.0,2.0,98,0.00,,---,0.00,VWS V14.01,2013-06-12 11:40:00,
2013-06-12 07:44:00,55.5,54.7,29.92,North,1,0.0,2.0,97,0.00,,---,0.00,VWS V14.01,2013-06-12 11:44:00,
2013-06-12 07:49:00,55.5,55.0,29.92,North,1,1.0,2.0,98,0.00,,---,0.00,VWS V14.01,2013-06-12 11:49:00,
2013-06-12 07:50:00,55.3,54.8,29.92,North,1,2.0,3.0,98,0.00,,---,0.00,VWS V14.01,2013-06-12 11:50:00,
2013-06-12 07:54:00,55.6,55.0,29.92,North,1,1.0,3.0,98,0.00,,---,0.00,VWS V14.01,2013-06-12 11:54:00,
2013-06-12 07:59:00,55.5,55.0,29.92,North,1,1.0,3.0,98,0.00,,---,0.00,VWS V14.01,2013-06-12 11:59:00,
2013-06-12 08:00:00,55.2,54.7,29.93,North,1,1.0,3.0,98,0.00,,---,0.00,VWS V14.01,2013-06-12 12:00:00,
2013-06-12 08:04:00,55.5,55.0,29.92,North,1,3.0,3.0,98,0.00,,---,0.00,VWS V14.01,2013-06-12 12:04:00,
2013-06-12 08:09:00,55.5,55.0,29.92,North,1,2.0,4.0,98,0.00,,---,0.00,VWS V14.01,2013-06-12 12:09:00,
2013-06-12 08:10:00,55.2,54.7,29.93,North,1,1.0,3.0,98,0.00,,---,0.00,VWS V14.01,2013-06-12 12:10:00,
2013-06-12 08:14:00,55.6,55.0,29.93,North,1,0.0,2.0,98,0.00,,---,0.00,VWS V14.01,2013-06-12 12:14:00,
2013-06-12 08:19:00,55.8,55.2,29.93,North,1,1.0,2.0,98,0.00,,---,0.00,VWS V14.01,2013-06-12 12:19:00,
2013-06-12 08:20:00,55.2,54.7,29.93,North,1,0.0,3.0,98,0.00,,---,0.00,VWS V14.01,2013-06-12 12:20:00,
2013-06-12 08:24:00,55.8,55.2,29.94,North,1,0.0,3.0,98,0.00,,---,0.00,VWS V14.01,2013-06-12 12:24:00,
2013-06-12 08:29:00,55.8,55.2,29.95,North,1,0.0,3.0,98,0.00,,---,0.00,VWS V14.01,2013-06-12 12:29:00,
2013-06-12 08:30:00,55.5,55.0,29.93,North,1,1.0,4.0,98,0.00,,---,0.00,VWS V14.01,2013-06-12 12:30:00,
2013-06-12 08:34:00,56.1,55.5,29.94,North,1,0.0,3.0,98,0.00,,---,0.00,VWS V14.01,2013-06-12 12:34:00,
2013-06-12 08:39:00,56.2,55.7,29.95,North,1,0.0,3.0,98,0.00,,---,0.00,VWS V14.01,2013-06-12 12:39:00,
2013-06-12 08:40:00,55.5,54.7,29.92,North,1,0.0,5.0,97,0.00,,---,0.00,VWS V14.01,2013-06-12 12:40:00,
2013-06-12 08:44:00,56.4,55.8,29.95,North,1,0.0,0.0,98,0.00,,---,0.00,VWS V14.01,2013-06-12 12:44:00,
2013-06-12 08:49:00,56.5,55.9,29.95,North,1,0.0,3.0,98,0.00,,---,0.00,VWS V14.01,2013-06-12 12:49:00,
2013-06-12 08:50:00,55.5,55.0,29.92,North,1,1.0,3.0,98,0.00,,---,0.00,VWS V14.01,2013-06-12 12:50:00,
2013-06-12 08:54:00,56.7,56.1,29.95,North,1,0.0,3.0,98,0.00,,---,0.00,VWS V14.01,2013-06-12 12:54:00,
2013-06-12 08:59:00,56.8,56.2,29.95,North,1,0.0,3.0,98,0.00,,---,0.00,VWS V14.01,2013-06-12 12:59:00,
2013-06-12 09:00:00,55.5,55.0,29.92,North,1,1.0,3.0,98,0.00,,---,0.00,VWS V14.01,2013-06-12 13:00:00,
2013-06-12 09:04:00,57.3,56.7,29.94,North,1,1.0,3.0,98,0.00,,---,0.00,VWS V14.01,2013-06-12 13:04:00,
2013-06-12 09:09:00,57.1,56.5,29.94,North,1,2.0,4.0,98,0.00,,---,0.00,VWS V14.01,2013-06-12 13:09:00,
2013-06-12 09:10:00,55.5,55.0,29.92,North,1,1.0,4.0,98,0.00,,---,0.00,VWS V14.01,2013-06-12 13:10:00,
2013-06-12 09:14:00,57.3,56.7,29.95,North,1,4.0,4.0,98,0.00,,---,0.00,VWS V14.01,2013-06-12 13:14:00,
2013-06-12 09:19:00,57.4,56.8,29.94,North,1,1.0,5.0,98,0.00,,---,0.00,VWS V14.01,2013-06-12 13:19:00,
2013-06-12 09:20:00,55.8,55.2,29.93,North,1,2.0,2.0,98,0.00,,---,0.00,VWS V14.01,2013-06-12 13:20:00,
2013-06-12 09:24:00,57.7,57.1,29.94,North,1,2.0,4.0,98,0.00,,---,0.00,VWS V14.01,2013-06-12 13:24:00,
2013-06-12 09:29:00,57.9,57.3,29.93,North,6,1.0,5.0,98,0.00,,---,0.00,VWS V14.01,2013-06-12 13:29:00,
2013-06-12 09:30:00,55.8,55.2,29.94,North,1,1.0,3.0,98,0.00,,---,0.00,VWS V14.01,2013-06-12 13:30:00,
2013-06-12 09:34:00,58.0,57.4,29.93,North,5,2.0,3.0,98,0.00,,---,0.00,VWS V14.01,2013-06-12 13:34:00,
2013-06-12 09:39:00,58.3,57.7,29.93,North,6,1.0,4.0,98,0.00,,---,0.00,VWS V14.01,2013-06-12 13:39:00,
2013-06-12 09:40:00,56.2,55.7,29.95,North,1,0.0,3.0,98,0.00,,---,0.00,VWS V14.01,2013-06-12 13:40:00,
2013-06-12 09:44:00,58.8,58.2,29.92,North,5,0.0,3.0,98,0.00,,---,0.00,VWS V14.01,2013-06-12 13:44:00,
2013-06-12 09:49:00,59.2,58.9,29.92,North,5,0.0,4.0,99,0.00,,---,0.00,VWS V14.01,2013-06-12 13:49:00,
2013-06-12 09:50:00,56.5,55.9,29.95,North,1,2.0,3.0,98,0.00,,---,0.00,VWS V14.01,2013-06-12 13:50:00,
2013-06-12 09:55:00,59.7,59.4,29.93,SSE,158,1.0,5.0,99,0.00,,---,0.00,VWS V14.01,2013-06-12 13:55:00,
2013-06-12 10:00:00,59.6,59.0,29.93,SSE,158,4.0,5.0,98,0.00,,---,0.00,VWS V14.01,2013-06-12 14:00:00,
2013-06-12 10:05:00,59.9,59.6,29.92,South,186,4.0,5.0,99,0.00,,---,0.00,VWS V14.01,2013-06-12 14:05:00,
2013-06-12 10:10:00,60.2,59.6,29.92,East,98,3.0,5.0,98,0.00,,---,0.00,VWS V14.01,2013-06-12 14:10:00,
2013-06-12 10:15:00,60.3,60.0,29.92,ESE,123,1.0,6.0,99,0.00,,---,0.00,VWS V14.01,2013-06-12 14:15:00,
2013-06-12 10:20:00,61.0,60.7,29.91,ESE,121,2.0,6.0,99,0.00,,---,0.00,VWS V14.01,2013-06-12 14:20:00,
2013-06-12 10:25:00,61.3,61.0,29.90,ESE,114,2.0,3.0,99,0.00,,---,0.00,VWS V14.01,2013-06-12 14:25:00,
2013-06-12 10:30:00,62.0,62.0,29.90,NW,316,5.0,6.0,100,0.00,,---,0.00,VWS V14.01,2013-06-12 14:30:00,
2013-06-12 10:35:00,61.4,61.4,29.91,NW,306,3.0,7.0,100,0.00,,---,0.00,VWS V14.01,2013-06-12 14:35:00,
2013-06-12 10:40:00,61.4,61.4,29.91,WNW,293,4.0,7.0,100,0.00,,---,0.00,VWS V14.01,2013-06-12 14:40:00,
2013-06-12 10:45:00,61.8,61.8,29.91,WNW,302,2.0,5.0,100,0.00,,---,0.00,VWS V14.01,2013-06-12 14:45:00,
2013-06-12 10:50:00,62.5,62.5,29.89,WNW,303,2.0,2.0,100,0.00,,---,0.00,VWS V14.01,2013-06-12 14:50:00,
2013-06-12 10:55:00,63.3,63.3,29.89,WNW,303,0.0,4.0,100,0.00,,---,0.00,VWS V14.01,2013-06-12 14:55:00,
2013-06-12 11:00:00,64.3,64.3,29.89,WNW,302,2.0,3.0,100,0.00,,---,0.00,VWS V14.01,2013-06-12 15:00:00,
2013-06-12 11:05:00,64.5,64.2,29.88,WNW,303,5.0,7.0,99,0.00,,---,0.00,VWS V14.01,2013-06-12 15:05:00,
2013-06-12 11:10:00,65.1,64.5,29.89,WNW,303,2.0,3.0,98,0.00,,---,0.00,VWS V14.01,2013-06-12 15:10:00,
2013-06-12 11:15:00,65.7,64.8,29.89,NW,304,5.0,7.0,97,0.00,,---,0.00,VWS V14.01,2013-06-12 15:15:00,
2013-06-12 11:20:00,65.7,64.2,29.89,WNW,302,2.0,5.0,95,0.00,,---,0.00,VWS V14.01,2013-06-12 15:20:00,
2013-06-12 11:25:00,66.4,64.6,29.90,SW,233,4.0,5.0,94,0.00,,---,0.00,VWS V14.01,2013-06-12 15:25:00,
2013-06-12 11:30:00,66.5,63.5,29.90,WNW,299,3.0,5.0,90,0.00,,---,0.00,VWS V14.01,2013-06-12 15:30:00,
2013-06-12 11:35:00,67.0,63.7,29.90,WNW,282,3.0,5.0,89,0.00,,---,0.00,VWS V14.01,2013-06-12 15:35:00,
2013-06-12 11:40:00,67.7,64.0,29.90,WNW,282,4.0,4.0,88,0.00,,---,0.00,VWS V14.01,2013-06-12 15:40:00,
2013-06-12 11:45:00,68.5,63.5,29.90,WNW,284,1.0,5.0,84,0.00,,---,0.00,VWS V14.01,2013-06-12 15:45:00,
2013-06-12 11:50:00,69.3,63.2,29.90,WNW,294,2.0,5.0,81,0.00,,---,0.00,VWS V14.01,2013-06-12 15:50:00,
2013-06-12 11:55:00,69.8,62.6,29.90,West,268,2.0,6.0,78,0.00,,---,0.00,VWS V14.01,2013-06-12 15:55:00,
2013-06-12 12:00:00,70.2,62.3,29.90,West,264,4.0,4.0,76,0.00,,---,0.00,VWS V14.01,2013-06-12 16:00:00,
2013-06-12 12:05:00,70.7,62.4,29.90,WSW,251,2.0,6.0,75,0.00,,---,0.00,VWS V14.01,2013-06-12 16:05:00,
2013-06-12 12:10:00,70.8,62.1,29.89,West,262,3.0,3.0,74,0.00,,---,0.00,VWS V14.01,2013-06-12 16:10:00,
2013-06-12 12:15:00,71.0,61.9,29.89,West,262,2.0,4.0,73,0.00,,---,0.00,VWS V14.01,2013-06-12 16:15:00,
2013-06-12 12:20:00,71.9,62.4,29.89,SSE,154,5.0,7.0,72,0.00,,---,0.00,VWS V14.01,2013-06-12 16:20:00,
2013-06-12 12:25:00,72.2,61.9,29.89,ESE,121,3.0,7.0,70,0.00,,---,0.00,VWS V14.01,2013-06-12 16:25:00,
2013-06-12 12:30:00,72.5,62.2,29.89,SSE,147,3.0,4.0,70,0.00,,---,0.00,VWS V14.01,2013-06-12 16:30:00,
2013-06-12 12:35:00,73.1,62.7,29.90,SE,145,4.0,7.0,70,0.00,,---,0.00,VWS V14.01,2013-06-12 16:35:00,
2013-06-12 12:40:00,73.2,61.6,29.89,SW,236,2.0,4.0,67,0.00,,---,0.00,VWS V14.01,2013-06-12 16:40:00,
2013-06-12 12:45:00,73.8,58.6,29.89,NW,309,4.0,6.0,59,0.00,,---,0.00,VWS V14.01,2013-06-12 16:45:00,
2013-06-12 12:50:00,73.4,58.2,29.89,NW,309,2.0,5.0,59,0.00,,---,0.00,VWS V14.01,2013-06-12 16:50:00,
2013-06-12 12:55:00,73.2,59.0,29.89,NW,307,0.0,5.0,61,0.00,,---,0.00,VWS V14.01,2013-06-12 16:55:00,
2013-06-12 13:00:00,73.1,58.9,29.89,NW,307,3.0,5.0,61,0.00,,---,0.00,VWS V14.01,2013-06-12 17:00:00,
2013-06-12 13:05:00,73.7,56.5,29.88,NW,308,3.0,5.0,55,0.00,,---,0.00,VWS V14.01,2013-06-12 17:05:00,
2013-06-12 13:10:00,74.1,55.9,29.88,NW,308,3.0,5.0,53,0.00,,---,0.00,VWS V14.01,2013-06-12 17:10:00,
2013-06-12 13:15:00,74.6,56.9,29.88,NW,322,1.0,7.0,54,0.00,,---,0.00,VWS V14.01,2013-06-12 17:15:00,
2013-06-12 13:20:00,74.8,56.5,29.88,NW,321,6.0,6.0,53,0.00,,---,0.00,VWS V14.01,2013-06-12 17:20:00,
2013-06-12 13:25:00,74.9,56.6,29.88,NW,320,3.0,7.0,53,0.00,,---,0.00,VWS V14.01,2013-06-12 17:25:00,
2013-06-12 13:30:00,75.3,56.5,29.88,NW,319,4.0,5.0,52,0.00,,---,0.00,VWS V14.01,2013-06-12 17:30:00,
2013-06-12 13:35:00,75.5,56.1,29.88,NW,313,4.0,6.0,51,0.00,,---,0.00,VWS V14.01,2013-06-12 17:35:00,
2013-06-12 13:40:00,75.3,54.8,29.88,NNW,341,2.0,7.0,49,0.00,,---,0.00,VWS V14.01,2013-06-12 17:40:00,
2013-06-12 13:46:00,75.3,55.4,29.88,North,349,2.0,7.0,50,0.00,,---,0.00,VWS V14.01,2013-06-12 17:46:00,
2013-06-12 13:50:00,73.6,58.4,29.89,NW,309,4.0,6.0,59,0.00,,---,0.00,VWS V14.01,2013-06-12 17:50:00,
2013-06-12 13:51:00,75.5,53.3,29.88,NNW,336,2.0,6.0,46,0.00,,---,0.00,VWS V14.01,2013-06-12 17:51:00,
2013-06-12 13:56:00,75.8,54.2,29.87,North,350,3.0,8.0,47,0.00,,---,0.00,VWS V14.01,2013-06-12 17:56:00,
2013-06-12 14:00:00,73.1,58.9,29.89,NW,307,5.0,5.0,61,0.00,,---,0.00,VWS V14.01,2013-06-12 18:00:00,
2013-06-12 14:01:00,76.2,55.1,29.87,NNW,342,3.0,8.0,48,0.00,,---,0.00,VWS V14.01,2013-06-12 18:01:00,
2013-06-12 14:06:00,76.3,54.0,29.86,NW,322,5.0,8.0,46,0.00,,---,0.00,VWS V14.01,2013-06-12 18:06:00,
2013-06-12 14:10:00,74.1,55.9,29.88,NW,308,2.0,6.0,53,0.00,,---,0.00,VWS V14.01,2013-06-12 18:10:00,
2013-06-12 14:11:00,76.5,53.0,29.86,NNW,330,4.0,8.0,44,0.00,,---,0.00,VWS V14.01,2013-06-12 18:11:00,
2013-06-12 14:16:00,76.4,54.7,29.86,North,4,5.0,9.0,47,0.00,,---,0.00,VWS V14.01,2013-06-12 18:16:00,
2013-06-12 14:20:00,74.8,56.0,29.88,NW,315,2.0,7.0,52,0.00,,---,0.00,VWS V14.01,2013-06-12 18:20:00,
2013-06-12 14:21:00,76.2,54.5,29.86,NNW,333,6.0,7.0,47,0.00,,---,0.00,VWS V14.01,2013-06-12 18:21:00,
2013-06-12 14:26:00,76.2,53.9,29.85,NNW,338,6.0,9.0,46,0.00,,---,0.00,VWS V14.01,2013-06-12 18:26:00,
2013-06-12 14:30:00,75.3,57.0,29.88,NW,319,5.0,7.0,53,0.00,,---,0.00,VWS V14.01,2013-06-12 18:30:00,
2013-06-12 14:31:00,76.0,53.2,29.86,NNW,340,3.0,7.0,45,0.00,,---,0.00,VWS V14.01,2013-06-12 18:31:00,
2013-06-12 14:36:00,76.2,55.1,29.85,North,0,0.0,7.0,48,0.00,,---,0.00,VWS V14.01,2013-06-12 18:36:00,
2013-06-12 14:40:00,75.5,55.6,29.88,North,352,7.0,7.0,50,0.00,,---,0.00,VWS V14.01,2013-06-12 18:40:00,
2013-06-12 14:41:00,76.4,54.1,29.86,North,356,5.0,6.0,46,0.00,,---,0.00,VWS V14.01,2013-06-12 18:41:00,
2013-06-12 14:46:00,76.3,54.0,29.85,North,0,5.0,9.0,46,0.00,,---,0.00,VWS V14.01,2013-06-12 18:46:00,
2013-06-12 14:50:00,75.5,55.0,29.88,NNW,343,5.0,8.0,49,0.00,,---,0.00,VWS V14.01,2013-06-12 18:50:00,
2013-06-12 14:51:00,76.5,55.4,29.85,North,359,5.0,9.0,48,0.00,,---,0.00,VWS V14.01,2013-06-12 18:51:00,
2013-06-12 14:56:00,76.5,55.4,29.86,NNW,338,5.0,10.0,48,0.00,,---,0.00,VWS V14.01,2013-06-12 18:56:00,
2013-06-12 15:00:00,76.2,55.1,29.87,NNW,344,8.0,8.0,48,0.00,,---,0.00,VWS V14.01,2013-06-12 19:00:00,
2013-06-12 15:01:00,76.7,56.1,29.86,NNW,342,5.0,10.0,49,0.00,,---,0.00,VWS V14.01,2013-06-12 19:01:00,
2013-06-12 15:06:00,76.7,56.7,29.86,North,0,10.0,11.0,50,0.00,,---,0.00,VWS V14.01,2013-06-12 19:06:00,
2013-06-12 15:10:00,76.5,54.2,29.86,NW,318,8.0,8.0,46,0.00,,---,0.00,VWS V14.01,2013-06-12 19:10:00,
2013-06-12 15:11:00,76.5,56.5,29.85,North,359,9.0,12.0,50,0.00,,---,0.00,VWS V14.01,2013-06-12 19:11:00,
2013-06-12 15:16:00,76.0,54.9,29.85,NNW,344,7.0,12.0,48,0.00,,---,0.00,VWS V14.01,2013-06-12 19:16:00,
2013-06-12 15:20:00,76.2,54.5,29.86,NW,326,5.0,9.0,47,0.00,,---,0.00,VWS V14.01,2013-06-12 19:20:00,
2013-06-12 15:21:00,75.3,54.3,29.85,NNW,347,11.0,12.0,48,0.00,,---,0.00,VWS V14.01,2013-06-12 19:21:00,
2013-06-12 15:26:00,74.8,53.2,29.85,North,356,5.0,13.0,47,0.00,,---,0.00,VWS V14.01,2013-06-12 19:26:00,
2013-06-12 15:30:00,76.0,52.5,29.85,NNW,344,5.0,10.0,44,0.00,,---,0.00,VWS V14.01,2013-06-12 19:30:00,
2013-06-12 15:31:00,74.4,52.9,29.85,North,351,7.0,9.0,47,0.00,,---,0.00,VWS V14.01,2013-06-12 19:31:00,
2013-06-12 15:36:00,74.6,53.1,29.85,North,1,8.0,12.0,47,0.00,,---,0.00,VWS V14.01,2013-06-12 19:36:00,
2013-06-12 15:40:00,76.4,54.7,29.86,NNW,345,5.0,7.0,47,0.00,,---,0.00,VWS V14.01,2013-06-12 19:40:00,
2013-06-12 15:41:00,74.8,53.2,29.85,NNE,17,12.0,12.0,47,0.00,,---,0.00,VWS V14.01,2013-06-12 19:41:00,
2013-06-12 15:46:00,74.3,53.4,29.85,NNW,335,7.0,14.0,48,0.00,,---,0.00,VWS V14.01,2013-06-12 19:46:00,
2013-06-12 15:50:00,76.5,54.8,29.86,North,349,5.0,9.0,47,0.00,,---,0.00,VWS V14.01,2013-06-12 19:50:00,
2013-06-12 15:51:00,73.9,54.7,29.85,NNW,345,6.0,9.0,51,0.00,,---,0.00,VWS V14.01,2013-06-12 19:51:00,
2013-06-12 15:56:00,73.6,53.8,29.85,NNW,347,5.0,12.0,50,0.00,,---,0.00,VWS V14.01,2013-06-12 19:56:00,
2013-06-12 16:00:00,76.7,55.0,29.86,North,350,9.0,11.0,47,0.00,,---,0.00,VWS V14.01,2013-06-12 20:00:00,
2013-06-12 16:01:00,73.4,52.5,29.86,North,351,3.0,10.0,48,0.00,,---,0.00,VWS V14.01,2013-06-12 20:01:00,
2013-06-12 16:06:00,73.6,53.3,29.85,North,354,5.0,10.0,49,0.00,,---,0.00,VWS V14.01,2013-06-12 20:06:00,
2013-06-12 16:10:00,76.7,56.1,29.86,North,11,8.0,13.0,49,0.00,,---,0.00,VWS V14.01,2013-06-12 20:10:00,
2013-06-12 16:11:00,73.6,53.8,29.85,North,356,4.0,9.0,50,0.00,,---,0.00,VWS V14.01,2013-06-12 20:11:00,
2013-06-12 16:16:00,74.1,54.3,29.85,NNW,334,7.0,10.0,50,0.00,,---,0.00,VWS V14.01,2013-06-12 20:16:00,
2013-06-12 16:20:00,75.5,54.5,29.85,NNW,342,10.0,13.0,48,0.00,,---,0.00,VWS V14.01,2013-06-12 20:20:00,
2013-06-12 16:21:00,74.6,54.8,29.86,NNW,343,6.0,10.0,50,0.00,,---,0.00,VWS V14.01,2013-06-12 20:21:00,
2013-06-12 16:26:00,75.1,55.2,29.86,NNW,331,6.0,10.0,50,0.00,,---,0.00,VWS V14.01,2013-06-12 20:26:00,
2013-06-12 16:30:00,74.4,53.5,29.85,North,359,4.0,13.0,48,0.00,,---,0.00,VWS V14.01,2013-06-12 20:30:00,
2013-06-12 16:31:00,75.6,54.5,29.86,NNW,347,4.0,10.0,48,0.00,,---,0.00,VWS V14.01,2013-06-12 20:31:00,
2013-06-12 16:36:00,75.6,54.0,29.85,NW,323,2.0,10.0,47,0.00,,---,0.00,VWS V14.01,2013-06-12 20:36:00,
2013-06-12 16:40:00,74.8,53.8,29.85,NW,326,11.0,12.0,48,0.00,,---,0.00,VWS V14.01,2013-06-12 20:40:00,
2013-06-12 16:41:00,75.8,55.9,29.85,NNE,33,4.0,7.0,50,0.00,,---,0.00,VWS V14.01,2013-06-12 20:41:00,
2013-06-12 16:46:00,76.0,54.3,29.85,North,351,2.0,7.0,47,0.00,,---,0.00,VWS V14.01,2013-06-12 20:46:00,
2013-06-12 16:50:00,73.9,54.1,29.85,North,356,6.0,14.0,50,0.00,,---,0.00,VWS V14.01,2013-06-12 20:50:00,
2013-06-12 16:51:00,76.4,54.1,29.84,WNW,299,1.0,4.0,46,0.00,,---,0.00,VWS V14.01,2013-06-12 20:51:00,
2013-06-12 16:56:00,76.6,54.9,29.85,NNW,346,5.0,7.0,47,0.00,,---,0.00,VWS V14.01,2013-06-12 20:56:00,
2013-06-12 17:00:00,73.4,52.5,29.86,NNW,344,5.0,13.0,48,0.00,,---,0.00,VWS V14.01,2013-06-12 21:00:00,
2013-06-12 17:02:00,76.9,55.2,29.85,NNW,342,4.0,7.0,47,0.00,,---,0.00,VWS V14.01,2013-06-12 21:02:00,
2013-06-12 17:07:00,76.7,53.8,29.85,NNW,344,7.0,7.0,45,0.00,,---,0.00,VWS V14.01,2013-06-12 21:07:00,
2013-06-12 17:10:00,73.6,53.8,29.85,NNW,341,5.0,10.0,50,0.00,,---,0.00,VWS V14.01,2013-06-12 21:10:00,
2013-06-12 17:12:00,76.5,54.2,29.85,North,354,6.0,6.0,46,0.00,,---,0.00,VWS V14.01,2013-06-12 21:12:00,
2013-06-12 17:17:00,76.7,55.0,29.85,NNW,346,7.0,8.0,47,0.00,,---,0.00,VWS V14.01,2013-06-12 21:17:00,
2013-06-12 17:20:00,74.4,54.0,29.86,NW,322,5.0,10.0,49,0.00,,---,0.00,VWS V14.01,2013-06-12 21:20:00,
2013-06-12 17:22:00,76.7,55.5,29.85,NNW,348,7.0,8.0,48,0.00,,---,0.00,VWS V14.01,2013-06-12 21:22:00,
2013-06-12 17:27:00,76.7,55.5,29.85,North,1,6.0,9.0,48,0.00,,---,0.00,VWS V14.01,2013-06-12 21:27:00,
2013-06-12 17:30:00,75.5,53.9,29.85,NNW,346,7.0,10.0,47,0.00,,---,0.00,VWS V14.01,2013-06-12 21:30:00,
2013-06-12 17:32:00,76.5,56.5,29.85,North,353,7.0,9.0,50,0.00,,---,0.00,VWS V14.01,2013-06-12 21:32:00,
2013-06-12 17:37:00,76.5,54.8,29.85,North,2,5.0,10.0,47,0.00,,---,0.00,VWS V14.01,2013-06-12 21:37:00,
2013-06-12 17:40:00,75.8,54.7,29.85,North,10,5.0,10.0,48,0.00,,---,0.00,VWS V14.01,2013-06-12 21:40:00,
2013-06-12 17:42:00,75.8,54.2,29.85,North,5,11.0,13.0,47,0.00,,---,0.00,VWS V14.01,2013-06-12 21:42:00,
2013-06-12 17:47:00,74.9,52.2,29.85,North,352,6.0,13.0,45,0.00,,---,0.00,VWS V14.01,2013-06-12 21:47:00,
2013-06-12 17:50:00,76.2,54.5,29.85,WNW,299,3.0,7.0,47,0.00,,---,0.00,VWS V14.01,2013-06-12 21:50:00,
2013-06-12 17:52:00,74.2,53.3,29.85,North,356,5.0,11.0,48,0.00,,---,0.00,VWS V14.01,2013-06-12 21:52:00,
2013-06-12 17:57:00,74.3,52.8,29.84,NNW,340,8.0,11.0,47,0.00,,---,0.00,VWS V14.01,2013-06-12 21:57:00,
2013-06-12 18:00:00,76.7,55.0,29.85,NNW,344,3.0,7.0,47,0.00,,---,0.00,VWS V14.01,2013-06-12 22:00:00,
2013-06-12 18:02:00,74.3,52.8,29.84,North,1,7.0,9.0,47,0.00,,---,0.00,VWS V14.01,2013-06-12 22:02:00,
2013-06-12 18:07:00,74.4,51.7,29.84,North,356,7.0,14.0,45,0.00,,---,0.00,VWS V14.01,2013-06-12 22:07:00,
2013-06-12 18:10:00,76.5,53.0,29.85,North,0,6.0,7.0,44,0.00,,---,0.00,VWS V14.01,2013-06-12 22:10:00,
2013-06-12 18:12:00,74.4,52.3,29.84,NNW,343,9.0,11.0,46,0.00,,---,0.00,VWS V14.01,2013-06-12 22:12:00,
2013-06-12 18:17:00,74.1,50.2,29.84,North,3,9.0,12.0,43,0.00,,---,0.00,VWS V14.01,2013-06-12 22:17:00,
2013-06-12 18:20:00,76.7,55.0,29.85,NNE,22,7.0,8.0,47,0.00,,---,0.00,VWS V14.01,2013-06-12 22:20:00,
2013-06-12 18:22:00,73.9,50.0,29.83,NNE,13,10.0,13.0,43,0.00,,---,0.00,VWS V14.01,2013-06-12 22:22:00,
2013-06-12 18:27:00,73.4,50.2,29.83,North,8,11.0,13.0,44,0.00,,---,0.00,VWS V14.01,2013-06-12 22:27:00,
2013-06-12 18:30:00,76.5,56.5,29.85,NNW,343,3.0,9.0,50,0.00,,---,0.00,VWS V14.01,2013-06-12 22:30:00,
2013-06-12 18:32:00,73.2,50.6,29.83,NNE,17,5.0,11.0,45,0.00,,---,0.00,VWS V14.01,2013-06-12 22:32:00,
2013-06-12 18:37:00,72.4,50.5,29.83,NNW,343,8.0,14.0,46,0.00,,---,0.00,VWS V14.01,2013-06-12 22:37:00,
2013-06-12 18:40:00,76.2,55.7,29.85,North,1,7.0,10.0,49,0.00,,---,0.00,VWS V14.01,2013-06-12 22:40:00,
2013-06-12 18:42:00,71.9,52.3,29.83,NNW,346,5.0,7.0,50,0.00,,---,0.00,VWS V14.01,2013-06-12 22:42:00,
2013-06-12 18:47:00,71.9,52.8,29.83,NNW,338,5.0,10.0,51,0.00,,---,0.00,VWS V14.01,2013-06-12 22:47:00,
2013-06-12 18:50:00,74.6,53.1,29.85,NNW,348,6.0,13.0,47,0.00,,---,0.00,VWS V14.01,2013-06-12 22:50:00,
2013-06-12 18:52:00,72.0,54.5,29.82,North,353,7.0,9.0,54,0.00,,---,0.00,VWS V14.01,2013-06-12 22:52:00,
2013-06-12 18:57:00,72.1,54.0,29.82,North,354,5.0,9.0,53,0.00,,---,0.00,VWS V14.01,2013-06-12 22:57:00,
2013-06-12 19:00:00,74.3,51.6,29.84,North,4,9.0,11.0,45,0.00,,---,0.00,VWS V14.01,2013-06-12 23:00:00,
2013-06-12 19:02:00,71.9,53.9,29.82,North,358,3.0,7.0,53,0.00,,---,0.00,VWS V14.01,2013-06-12 23:02:00,
2013-06-12 19:07:00,71.5,54.5,29.82,NNW,341,5.0,7.0,55,0.00,,---,0.00,VWS V14.01,2013-06-12 23:07:00,
2013-06-12 19:10:00,74.4,52.9,29.84,North,357,4.0,14.0,47,0.00,,---,0.00,VWS V14.01,2013-06-12 23:10:00,
2013-06-12 19:12:00,71.4,54.4,29.82,North,353,5.0,6.0,55,0.00,,---,0.00,VWS V14.01,2013-06-12 23:12:00,
2013-06-12 19:17:00,71.5,53.5,29.82,NNW,347,4.0,8.0,53,0.00,,---,0.00,VWS V14.01,2013-06-12 23:17:00,
2013-06-12 19:20:00,74.1,50.8,29.84,North,355,11.0,12.0,44,0.00,,---,0.00,VWS V14.01,2013-06-12 23:20:00,
2013-06-12 19:22:00,71.0,54.0,29.81,North,359,6.0,8.0,55,0.00,,---,0.00,VWS V14.01,2013-06-12 23:22:00,
2013-06-12 19:27:00,70.3,53.9,29.81,North,352,5.0,8.0,56,0.00,,---,0.00,VWS V14.01,2013-06-12 23:27:00,
2013-06-12 19:30:00,73.4,50.8,29.83,North,358,9.0,13.0,45,0.00,,---,0.00,VWS V14.01,2013-06-12 23:30:00,
2013-06-12 19:32:00,70.0,54.1,29.82,North,352,6.0,6.0,57,0.00,,---,0.00,VWS V14.01,2013-06-12 23:32:00,
2013-06-12 19:37:00,69.7,53.3,29.82,NNW,345,6.0,10.0,56,0.00,,---,0.00,VWS V14.01,2013-06-12 23:37:00,
2013-06-12 19:40:00,72.1,51.3,29.83,North,355,6.0,14.0,48,0.00,,---,0.00,VWS V14.01,2013-06-12 23:40:00,
2013-06-12 19:42:00,69.5,54.1,29.81,North,349,3.0,7.0,58,0.00,,---,0.00,VWS V14.01,2013-06-12 23:42:00,
2013-06-12 19:47:00,69.3,53.9,29.81,NNE,26,4.0,7.0,58,0.00,,---,0.00,VWS V14.01,2013-06-12 23:47:00,
2013-06-12 19:50:00,71.9,53.3,29.83,North,1,7.0,10.0,52,0.00,,---,0.00,VWS V14.01,2013-06-12 23:50:00,
2013-06-12 19:52:00,69.0,54.1,29.81,North,0,3.0,6.0,59,0.00,,---,0.00,VWS V14.01,2013-06-12 23:52:00,
2013-06-12 19:57:00,68.7,54.3,29.80,North,0,4.0,6.0,60,0.00,,---,0.00,VWS V14.01,2013-06-12 23:57:00,
2013-06-12 20:00:00,71.9,53.9,29.82,North,0,5.0,9.0,53,0.00,,---,0.00,VWS V14.01,2013-06-13 00:00:00,
2013-06-12 20:02:00,68.5,53.6,29.80,North,0,3.0,7.0,59,0.00,,---,0.00,VWS V14.01,2013-06-13 00:02:00,
2013-06-12 20:07:00,68.4,54.4,29.81,North,0,4.0,7.0,61,0.00,,---,0.00,VWS V14.01,2013-06-13 00:07:00,
2013-06-12 20:10:00,71.4,54.4,29.82,North,354,5.0,7.0,55,0.00,,---,0.00,VWS V14.01,2013-06-13 00:10:00,
2013-06-12 20:12:00,68.2,54.2,29.80,NNE,33,2.0,6.0,61,0.00,,---,0.00,VWS V14.01,2013-06-13 00:12:00,
2013-06-12 20:18:00,68.0,54.5,29.81,NNE,28,1.0,6.0,62,0.00,,---,0.00,VWS V14.01,2013-06-13 00:18:00,
2013-06-12 20:20:00,71.4,54.4,29.81,North,349,5.0,8.0,55,0.00,,---,0.00,VWS V14.01,2013-06-13 00:20:00,
2013-06-12 20:23:00,67.7,53.8,29.81,North,0,2.0,5.0,61,0.00,,---,0.00,VWS V14.01,2013-06-13 00:23:00,
2013-06-12 20:27:00,67.5,54.5,29.82,North,0,4.0,5.0,63,0.00,,---,0.00,VWS V14.01,2013-06-13 00:27:00,
2013-06-12 20:30:00,70.2,53.8,29.81,North,351,5.0,8.0,56,0.00,,---,0.00,VWS V14.01,2013-06-13 00:30:00,
2013-06-12 20:33:00,67.4,54.4,29.81,North,0,1.0,4.0,63,0.00,,---,0.00,VWS V14.01,2013-06-13 00:33:00,
2013-06-12 20:38:00,67.2,55.0,29.81,North,0,1.0,4.0,65,0.00,,---,0.00,VWS V14.01,2013-06-13 00:38:00,
2013-06-12 20:40:00,69.7,54.3,29.81,North,359,2.0,10.0,58,0.00,,---,0.00,VWS V14.01,2013-06-13 00:40:00,
2013-06-12 20:43:00,66.9,55.2,29.81,North,0,0.0,2.0,66,0.00,,---,0.00,VWS V14.01,2013-06-13 00:43:00,
2013-06-12 20:48:00,66.7,56.2,29.81,North,0,0.0,2.0,69,0.00,,---,0.00,VWS V14.01,2013-06-13 00:48:00,
2013-06-12 20:50:00,69.2,53.8,29.81,North,0,4.0,7.0,58,0.00,,---,0.00,VWS V14.01,2013-06-13 00:50:00,
2013-06-12 20:53:00,66.4,56.3,29.80,North,0,2.0,3.0,70,0.00,,---,0.00,VWS V14.01,2013-06-13 00:53:00,
2013-06-12 20:58:00,66.1,56.8,29.81,North,0,2.0,3.0,72,0.00,,---,0.00,VWS V14.01,2013-06-13 00:58:00,
2013-06-12 21:00:00,68.7,54.3,29.80,North,0,3.0,6.0,60,0.00,,---,0.00,VWS V14.01,2013-06-13 01:00:00,
2013-06-12 21:03:00,65.9,56.6,29.80,North,0,2.0,3.0,72,0.00,,---,0.00,VWS V14.01,2013-06-13 01:03:00,
2013-06-12 21:08:00,65.6,55.6,29.80,North,0,1.0,3.0,70,0.00,,---,0.00,VWS V14.01,2013-06-13 01:08:00,
2013-06-12 21:10:00,68.4,54.4,29.81,North,0,3.0,7.0,61,0.00,,---,0.00,VWS V14.01,2013-06-13 01:10:00,
2013-06-12 21:13:00,65.6,55.2,29.80,North,0,1.0,2.0,69,0.00,,---,0.00,VWS V14.01,2013-06-13 01:13:00,
2013-06-12 21:18:00,65.4,55.0,29.80,North,0,0.0,3.0,69,0.00,,---,0.00,VWS V14.01,2013-06-13 01:18:00,
2013-06-12 21:20:00,67.9,54.4,29.81,ESE,102,1.0,6.0,62,0.00,,---,0.00,VWS V14.01,2013-06-13 01:20:00,
2013-06-12 21:23:00,65.2,55.6,29.79,North,0,1.0,2.0,71,0.00,,---,0.00,VWS V14.01,2013-06-13 01:23:00,
2013-06-12 21:28:00,65.1,55.5,29.78,North,0,2.0,3.0,71,0.00,,---,0.00,VWS V14.01,2013-06-13 01:28:00,
2013-06-12 21:30:00,67.4,53.9,29.82,North,0,2.0,5.0,62,0.00,,---,0.00,VWS V14.01,2013-06-13 01:30:00,
2013-06-12 21:33:00,64.9,55.7,29.79,North,0,0.0,2.0,72,0.00,,---,0.00,VWS V14.01,2013-06-13 01:33:00,
2013-06-12 21:38:00,64.8,56.3,29.79,North,0,0.0,2.0,74,0.00,,---,0.00,VWS V14.01,2013-06-13 01:38:00,
2013-06-12 21:40:00,67.0,54.9,29.81,North,0,2.0,4.0,65,0.00,,---,0.00,VWS V14.01,2013-06-13 01:40:00,
2013-06-12 21:43:00,64.5,56.4,29.79,North,0,0.0,2.0,75,0.00,,---,0.00,VWS V14.01,2013-06-13 01:43:00,
2013-06-12 21:48:00,64.3,55.1,29.78,North,0,2.0,5.0,72,0.00,,---,0.00,VWS V14.01,2013-06-13 01:48:00,
2013-06-12 21:50:00,66.5,56.0,29.81,North,0,0.0,2.0,69,0.00,,---,0.00,VWS V14.01,2013-06-13 01:50:00,
2013-06-12 21:53:00,64.3,55.1,29.79,North,0,0.0,3.0,72,0.00,,---,0.00,VWS V14.01,2013-06-13 01:53:00,
2013-06-12 21:58:00,64.3,56.2,29.79,North,0,2.0,3.0,75,0.00,,---,0.00,VWS V14.01,2013-06-13 01:58:00,
2013-06-12 22:00:00,66.1,56.8,29.81,North,0,0.0,3.0,72,0.00,,---,0.00,VWS V14.01,2013-06-13 02:00:00,
2013-06-12 22:03:00,64.3,55.5,29.79,North,0,1.0,3.0,73,0.00,,---,0.00,VWS V14.01,2013-06-13 02:03:00,
2013-06-12 22:08:00,64.3,55.8,29.79,North,0,0.0,3.0,74,0.00,,---,0.00,VWS V14.01,2013-06-13 02:08:00,
2013-06-12 22:10:00,65.6,55.2,29.80,North,0,0.0,3.0,69,0.00,,---,0.00,VWS V14.01,2013-06-13 02:10:00,
2013-06-12 22:13:00,64.1,55.3,29.79,North,0,0.0,1.0,73,0.00,,---,0.00,VWS V14.01,2013-06-13 02:13:00,
2013-06-12 22:18:00,64.0,55.9,29.79,North,0,0.0,1.0,75,0.00,,---,0.00,VWS V14.01,2013-06-13 02:18:00,
2013-06-12 22:20:00,65.4,55.8,29.79,North,0,0.0,3.0,71,0.00,,---,0.00,VWS V14.01,2013-06-13 02:20:00,
2013-06-12 22:23:00,64.0,56.3,29.79,North,0,0.0,0.0,76,0.00,,---,0.00,VWS V14.01,2013-06-13 02:23:00,
2013-06-12 22:28:00,63.6,56.6,29.79,North,0,0.0,3.0,78,0.00,,---,0.00,VWS V14.01,2013-06-13 02:28:00,
2013-06-12 22:30:00,65.1,55.9,29.78,North,0,0.0,3.0,72,0.00,,---,0.00,VWS V14.01,2013-06-13 02:30:00,
2013-06-12 22:33:00,63.5,55.4,29.79,North,0,0.0,3.0,75,0.00,,---,0.00,VWS V14.01,2013-06-13 02:33:00,
2013-06-12 22:38:00,63.5,54.7,29.79,North,0,4.0,5.0,73,0.00,,---,0.00,VWS V14.01,2013-06-13 02:38:00,
2013-06-12 22:40:00,64.6,56.5,29.79,North,0,0.0,2.0,75,0.00,,---,0.00,VWS V14.01,2013-06-13 02:40:00,
2013-06-12 22:43:00,63.8,54.6,29.79,North,0,5.0,7.0,72,0.00,,---,0.00,VWS V14.01,2013-06-13 02:43:00,
2013-06-12 22:48:00,64.0,54.4,29.80,North,0,4.0,7.0,71,0.00,,---,0.00,VWS V14.01,2013-06-13 02:48:00,
2013-06-12 22:50:00,64.3,55.1,29.79,North,0,1.0,5.0,72,0.00,,---,0.00,VWS V14.01,2013-06-13 02:50:00,
2013-06-12 22:53:00,64.1,54.5,29.79,North,0,6.0,7.0,71,0.00,,---,0.00,VWS V14.01,2013-06-13 02:53:00,
2013-06-12 22:58:00,64.0,54.8,29.79,North,357,2.0,7.0,72,0.00,,---,0.00,VWS V14.01,2013-06-13 02:58:00,
2013-06-12 23:00:00,64.3,56.2,29.78,North,0,3.0,3.0,75,0.00,,---,0.00,VWS V14.01,2013-06-13 03:00:00,
2013-06-12 23:03:00,63.8,54.2,29.79,North,357,0.0,5.0,71,0.00,,---,0.00,VWS V14.01,2013-06-13 03:03:00,
2013-06-12 23:08:00,63.6,54.4,29.79,North,358,4.0,5.0,72,0.00,,---,0.00,VWS V14.01,2013-06-13 03:08:00,
2013-06-12 23:10:00,64.1,55.7,29.79,North,0,0.0,3.0,74,0.00,,---,0.00,VWS V14.01,2013-06-13 03:10:00,
2013-06-12 23:13:00,63.5,54.7,29.79,North,357,1.0,5.0,73,0.00,,---,0.00,VWS V14.01,2013-06-13 03:13:00,
2013-06-12 23:18:00,63.3,54.5,29.79,North,357,2.0,5.0,73,0.00,,---,0.00,VWS V14.01,2013-06-13 03:18:00,
2013-06-12 23:20:00,64.0,56.3,29.80,North,0,0.0,1.0,76,0.00,,---,0.00,VWS V14.01,2013-06-13 03:20:00,
2013-06-12 23:23:00,63.3,54.1,29.78,North,357,4.0,5.0,72,0.00,,---,0.00,VWS V14.01,2013-06-13 03:23:00,
2013-06-12 23:29:00,63.2,54.0,29.78,North,357,4.0,5.0,72,0.00,,---,0.00,VWS V14.01,2013-06-13 03:29:00,
2013-06-12 23:30:00,63.6,56.3,29.79,North,0,1.0,3.0,77,0.00,,---,0.00,VWS V14.01,2013-06-13 03:30:00,
2013-06-12 23:34:00,63.0,53.8,29.78,North,358,4.0,4.0,72,0.00,,---,0.00,VWS V14.01,2013-06-13 03:34:00,
2013-06-12 23:39:00,62.9,53.8,29.78,North,358,2.0,4.0,72,0.00,,---,0.00,VWS V14.01,2013-06-13 03:39:00,
2013-06-12 23:40:00,63.6,54.8,29.79,North,0,3.0,5.0,73,0.00,,---,0.00,VWS V14.01,2013-06-13 03:40:00,
2013-06-12 23:44:00,62.5,53.4,29.78,North,358,1.0,2.0,72,0.00,,---,0.00,VWS V14.01,2013-06-13 03:44:00,
2013-06-12 23:49:00,62.2,53.5,29.78,North,357,0.0,2.0,73,0.00,,---,0.00,VWS V14.01,2013-06-13 03:49:00,
2013-06-12 23:50:00,64.1,54.5,29.80,North,0,5.0,7.0,71,0.00,,---,0.00,VWS V14.01,2013-06-13 03:50:00,
2013-06-12 23:54:00,62.0,53.3,29.78,North,357,0.0,2.0,73,0.00,,---,0.00,VWS V14.01,2013-06-13 03:54:00,
2013-06-12 23:59:00,61.8,53.8,29.77,North,358,0.0,2.0,75,0.00,,---,0.00,VWS V14.01,2013-06-13 03:59:00,